Douglas, WY

4:59 AM MST on February 11, 2016 (GMT -0700)
Converse County

Weather History for KDGW - July, 2013

Change the Weather History Date:

Thursday, July 25, 2013

  Actual Average Record
Temperature  
Mean Temperature 72 °F 72 °F  
Max Temperature 86 °F 89 °F 101 °F (2003)
Min Temperature 58 °F 55 °F 50 °F (2004)
Degree Days  
Heating Degree Days 0 0  
Month to date heating degree days 0 9  
Since 1 June heating degree days 56 119  
Since 1 July heating degree days 0 9  
Cooling Degree Days 7 8  
Month to date cooling degree days 247 159  
Year to date cooling degree days 369 236  
Since 1 June cooling degree days 353 230  
Growing Degree Days 22 (Base 50)    
Moisture  
Dew Point 48 °F    
Average Humidity 52    
Maximum Humidity 80    
Minimum Humidity 23    
Precipitation  
Precipitation T in 0.04 in 0.74 in (2005)
Month to date precipitation 0.21 1.14  
Year to date precipitation 5.40 8.69  
Sea Level Pressure  
Sea Level Pressure 30.01 in    
Wind  
Wind Speed 9 mph (ENE)    
Max Wind Speed 18 mph    
Max Gust Speed 22 mph    
Visibility 10 miles    
Events      
T = Trace of Precipitation, MM = Missing Value Source: NWS Daily Summary

Daily Weather History Graph

Daily Weather History Graph

Search for Another Location

Airport or City:

Trip Planner

Search our weather history database for the weather conditions in past years. The results will help you decide how hot, cold, wet, or windy it might be!

Date:

Astronomy

Jul. 25, 2013 Rise Set
Actual Time 5:46 AM MDT 8:29 PM MDT
Civil Twilight 5:13 AM MDT 9:02 PM MDT
Nautical Twilight 4:31 AM MDT 9:43 PM MDT
Astronomical Twilight 3:44 AM MDT 10:30 PM MDT
Moon 10:04 PM MDT (7/25) 9:25 AM MDT (7/25)
Length of Visible Light 15h 48m
Length of Day
14h 43m
Waning Gibbous, 88% of the Moon is Illuminated
Jul 25
Waning Gibbous
Jul 29
Last Quarter
Aug 6
New
Aug 14
First Quarter
Aug 20
Full

Hourly Weather History & Observations

Time (MDT) Temp. Dew Point Humidity Pressure Visibility Wind Dir Wind Speed Gust Speed Precip Events Conditions
12:53 AM 66.0 °F 51.1 °F 59% 29.91 in 10.0 mi SSE 8.1 mph 20.7 mph N/A   Partly Cloudy
1:53 AM 64.0 °F 51.1 °F 63% 29.87 in 10.0 mi SE 9.2 mph - N/A   Clear
2:53 AM 62.1 °F 53.1 °F 72% 29.88 in 10.0 mi ESE 9.2 mph - N/A   Clear
3:53 AM 61.0 °F 54.0 °F 78% 29.91 in 10.0 mi ESE 9.2 mph - N/A   Clear
4:53 AM 59.0 °F 54.0 °F 83% 29.94 in 10.0 mi ESE 3.5 mph - N/A   Clear
5:53 AM 60.1 °F 54.0 °F 80% 29.94 in 10.0 mi Calm Calm - N/A   Clear
6:53 AM 62.1 °F 54.0 °F 75% 30.02 in 10.0 mi NNE 10.4 mph - 0.00 in   Partly Cloudy
7:53 AM 64.9 °F 52.0 °F 63% 30.05 in 10.0 mi ENE 16.1 mph 21.9 mph N/A   Clear
8:53 AM 66.9 °F 52.0 °F 59% 30.06 in 10.0 mi Calm Calm - N/A   Clear
9:53 AM 73.0 °F 50.0 °F 44% 30.06 in 10.0 mi SE 4.6 mph - N/A   Clear
10:53 AM 75.0 °F 46.9 °F 37% 30.06 in 10.0 mi Variable 3.5 mph - N/A   Clear
11:53 AM 80.1 °F 48.0 °F 32% 30.05 in 10.0 mi NNW 12.7 mph 17.3 mph N/A   Clear
12:53 PM 81.0 °F 46.0 °F 29% 30.05 in 10.0 mi North 10.4 mph - N/A   Clear
1:53 PM 82.0 °F 45.0 °F 27% 30.04 in 10.0 mi North 8.1 mph 18.4 mph N/A   Partly Cloudy
2:53 PM 82.9 °F 44.1 °F 25% 30.03 in 10.0 mi NNE 10.4 mph 19.6 mph N/A   Partly Cloudy
3:53 PM 84.9 °F 42.1 °F 22% 30.03 in 10.0 mi NNE 9.2 mph 20.7 mph N/A   Clear
4:53 PM 84.0 °F 42.1 °F 23% 30.03 in 10.0 mi North 8.1 mph - N/A   Partly Cloudy
5:53 PM 82.9 °F 41.0 °F 23% 30.02 in 10.0 mi NE 13.8 mph - N/A   Mostly Cloudy
6:53 PM 79.0 °F 42.1 °F 27% 30.03 in 10.0 mi ENE 13.8 mph - N/A   Clear
7:53 PM 77.0 °F 42.1 °F 29% 30.05 in 10.0 mi ENE 11.5 mph - N/A   Clear
8:53 PM 75.0 °F 43.0 °F 32% 30.06 in 10.0 mi ENE 11.5 mph - N/A   Clear
9:53 PM 71.1 °F 44.1 °F 38% 30.07 in 10.0 mi East 11.5 mph - N/A   Clear
10:53 PM 68.0 °F 50.0 °F 52% 30.09 in 10.0 mi ESE 10.4 mph - N/A   Partly Cloudy
11:53 PM 68.0 °F 46.9 °F 47% 30.09 in 10.0 mi SE 8.1 mph - N/A   Clear